GW0245 Weather Reports


Display with metric or nautical units.
time (UTC)temp
F
wind
direction
speed
MPH
gust
MPH
rain 1hr
in
rain 24hr
in
rain mn
in
humidity
%
barometer
mb
20260903213058 88 171 7.0 16.0 0.00 0.00 0.00 36 1015.7
20260903211612 90 109 6.0 11.0 0.00 0.00 0.00 34 1015.9
20260903210101 89 269 6.0 13.0 0.00 0.00 0.00 35 1016.1
20260903204602 88 130 3.0 14.0 0.00 0.00 0.00 35 1016.1
20260903203059 90 166 3.0 11.0 0.00 0.00 0.00 32 1016.1
20260903201606 90 184 4.0 11.0 0.00 0.00 0.00 33 1016.2
20260903200105 89 150 4.0 14.0 0.00 0.00 0.00 32 1016.4
20260903194559 89 146 7.0 14.0 0.00 0.00 0.00 33 1016.5
20260903193109 88 217 2.0 17.0 0.00 0.00 0.00 34 1016.6
20260903191605 88 173 2.0 14.0 0.00 0.00 0.00 33 1016.9
20260903190106 88 149 3.0 14.0 0.00 0.00 0.00 34 1017.2
20260903184607 87 150 5.0 12.0 0.00 0.00 0.00 34 1017.3
20260903183108 87 130 4.0 12.0 0.00 0.00 0.00 37 1017.5
20260903181605 86 121 5.0 18.0 0.00 0.00 0.00 35 1017.7
20260903180109 86 178 4.0 16.0 0.00 0.00 0.00 36 1017.9
20260903174611 85 164 3.0 12.0 0.00 0.00 0.00 38 1017.9
20260903173110 83 165 5.0 11.0 0.00 0.00 0.00 39 1017.9
20260903171605 82 98 3.0 10.0 0.00 0.00 0.00 42 1018.4
20260903170109 80 288 1.0 4.0 0.00 0.00 0.00 44 1018.3
20260903164608 79 14 2.0 5.0 0.00 0.00 0.00 42 1018.5
20260903163105 78 91 2.0 4.0 0.00 0.00 0.00 42 1018.6
20260903161607 78 65 1.0 4.0 0.00 0.00 0.00 44 1018.7
20260903160110 77 360 1.0 4.0 0.00 0.00 0.00 43 1018.7
20260903154607 77 53 1.0 4.0 0.00 0.00 0.00 41 1018.6
20260903153111 76 82 0.0 4.0 0.00 0.00 0.00 44 1018.7
20260903151603 75 23 1.0 2.0 0.00 0.00 0.00 42 1018.7
20260903150105 74 0 0.0 2.0 0.00 0.00 0.00 48 1018.8
20260903144601 74 0 1.0 3.0 0.00 0.00 0.00 53 1018.7
20260903143113 72 0 0.0 2.0 0.00 0.00 0.00 50 1018.6
20260903141614 69 0 0.0 0.0 0.00 0.00 0.00 55 1018.5
20260903140105 67 0 0.0 1.0 0.00 0.00 0.00 59 1018.4
20260903134610 65 0 0.0 1.0 0.00 0.00 0.00 61 1018.2
20260903133112 62 0 0.0 1.0 0.00 0.00 0.00 65 1017.9
20260903131605 61 290 0.0 1.0 0.00 0.00 0.00 65 1017.9
20260903130129 61 0 0.0 1.0 0.00 0.00 0.00 62 1017.7
20260903124612 62 0 0.0 0.0 0.00 0.00 0.00 61 1017.6
20260903123103 62 0 0.0 2.0 0.00 0.00 0.00 60 1017.6
20260903121602 64 244 0.0 1.0 0.00 0.00 0.00 59 1017.6
20260903120130 65 0 0.0 1.0 0.00 0.00 0.00 55 1017.3
20260903114606 67 0 0.0 2.0 0.00 0.00 0.00 52 1017.2
20260903113105 66 0 0.0 4.0 0.00 0.00 0.00 52 1017.0
20260903111605 67 0 0.0 1.0 0.00 0.00 0.00 51 1017.1
20260903110104 66 284 0.0 2.0 0.00 0.00 0.00 51 1017.0
20260903104606 67 270 0.0 2.0 0.00 0.00 0.00 50 1017.2
20260903103106 67 0 0.0 2.0 0.00 0.00 0.00 49 1017.3
20260903101605 67 0 0.0 6.0 0.00 0.00 0.00 49 1017.3
20260903100106 67 0 0.0 4.0 0.00 0.00 0.00 48 1017.4
20260903094610 68 288 2.0 4.0 0.00 0.03 0.00 47 1017.3
20260903093105 68 297 1.0 7.0 0.00 0.03 0.00 47 1017.4
20260903091600 68 258 2.0 4.0 0.00 0.03 0.00 48 1017.5
20260903090108 68 0 0.0 2.0 0.00 0.03 0.00 46 1017.5
20260903084604 69 0 0.0 6.0 0.00 0.03 0.00 45 1017.4
20260903083115 69 0 0.0 2.0 0.00 0.03 0.00 43 1017.5
20260903081625 70 198 1.0 5.0 0.00 0.03 0.00 42 1017.6
20260903080104 70 0 2.0 3.0 0.00 0.03 0.00 43 1017.7
20260903074612 70 251 3.0 7.0 0.00 0.03 0.00 43 1017.6
20260903073135 70 0 1.0 5.0 0.00 0.03 0.00 43 1017.8
20260903071621 70 0 1.0 4.0 0.00 0.03 0.00 43 1017.9
20260903070105 70 244 0.0 4.0 0.00 0.03 0.00 44 1017.8
20260903064558 70 0 1.0 3.0 0.00 0.03 0.03 44 1017.8
20260903063104 69 234 2.0 8.0 0.00 0.03 0.03 46 1017.8
20260903061604 69 296 0.0 3.0 0.00 0.03 0.03 48 1017.7
20260903060149 70 287 1.0 3.0 0.00 0.03 0.03 47 1017.7
20260903054602 71 0 1.0 4.0 0.00 0.03 0.03 45 1017.7
20260903053104 71 0 1.0 3.0 0.00 0.03 0.03 46 1017.6
20260903051608 72 224 0.0 1.0 0.00 0.03 0.03 45 1017.7
20260903050107 74 0 1.0 4.0 0.00 0.03 0.03 42 1017.8
20260903044605 74 250 0.0 2.0 0.00 0.03 0.03 41 1017.9
20260903043105 76 214 0.0 3.0 0.00 0.03 0.03 39 1017.8
20260903041602 75 218 2.0 7.0 0.00 0.03 0.03 39 1017.8
20260903040112 77 227 2.0 7.0 0.00 0.03 0.03 40 1017.6
20260903034603 75 234 4.0 9.0 0.00 0.03 0.03 44 1017.5
20260903033102 76 210 1.0 5.0 0.00 0.03 0.03 43 1017.4
20260903031604 76 230 1.0 9.0 0.00 0.03 0.03 43 1017.1
20260903030106 77 226 2.0 8.0 0.00 0.03 0.03 42 1016.9
20260903024602 77 264 3.0 7.0 0.00 0.03 0.03 41 1016.6
20260903023109 78 244 2.0 7.0 0.00 0.03 0.03 41 1016.5
20260903021611 79 240 1.0 6.0 0.00 0.03 0.03 39 1016.4
20260903020106 80 238 2.0 5.0 0.00 0.03 0.03 39 1016.3
20260903014609 81 220 1.0 5.0 0.00 0.03 0.03 38 1016.4
20260903013109 82 192 1.0 5.0 0.00 0.03 0.03 37 1016.3
20260903011606 84 188 2.0 10.0 0.00 0.03 0.03 35 1016.3
20260903004604 84 204 3.0 8.0 0.00 0.03 0.03 35 1016.5
20260903003109 85 0 1.0 10.0 0.00 0.03 0.03 35 1016.5
20260903001625 88 163 1.0 7.0 0.00 0.03 0.03 33 1016.5
20260903000103 86 164 2.0 10.0 0.00 0.03 0.03 34 1016.6
20260902234626 87 224 4.0 9.0 0.00 0.03 0.03 34 1016.6
20260902233105 86 0 3.0 12.0 0.00 0.03 0.03 34 1016.6
20260902231614 86 205 0.0 12.0 0.00 0.03 0.03 36 1016.7
20260902230115 86 225 1.0 9.0 0.00 0.03 0.03 35 1016.7
20260902224605 86 185 6.0 15.0 0.00 0.10 0.03 33 1017.0
20260902223059 86 227 5.0 13.0 0.00 0.10 0.03 35 1017.0
20260902221607 87 207 4.0 12.0 0.00 0.10 0.03 37 1017.1
20260902220107 87 155 2.0 11.0 0.00 0.10 0.03 40 1017.2
20260902214613 87 195 2.0 6.0 0.00 0.10 0.03 39 1017.5